Location: Bothwell
(41.7170°N, 112.2589°W)
Time: 15:10:51
(UTC+00:00)

Vanguard 2 - Pass Details

Date: 11 May 2026
Orbit: 553 x 2894 km, 32.9° (Epoch: 8 June)

Event Time Altitude Azimuth Distance (km) Brightness Sun altitude
Rises 13:50:23 0° 267° (W) 6,535 11.6 16.4°
Reaches altitude 10° 13:55:12 10° 264° (W) 5,307 11.3 17.3°
Maximum altitude 14:09:15 52° 194° (SSW) 2,273 10.0 19.9°
Drops below altitude 10° 14:18:06 10° 121° (ESE) 3,438 11.9 21.5°
Sets 14:20:34 0° 116° (ESE) 4,147 12.3 22.0°
